Flag for Germany Weather past 2 weeks in Lübbecke, North Rhine-Westphalia, Germany

Now
63 °F

Broken clouds.


Feels Like: 63 °F
Forecast: 49 / 62 °F
Wind: 15 mph from West

Location: Bueckeburg

Current Time: Jul 30, 2015 at 2:52:29 PM

Latest Report: Jul 30, 2015 at 1:20 PM


Visibility: N/A

Pressure: 29.92 "Hg

Humidity: 59%

Dew point: 48 °F

Location of LübbeckeLocation

Historic Weather in Lübbecke — Graph

°F

Lübbecke temperature yesterday

Maximum temperature yesterday: 63 °F (at 4:20 PM)
Minimum temperature yesterday: 54 °F (at 12:20 PM)
Average temperature yesterday: 57 °F

Past Weeks' High & Low Weather Summary

 TemperatureHumidityPressure
High90 °F (Jul 17, 3:20 PM)100% (Jul 16, 4:20 AM)30.12 "Hg (Jul 16, 4:20 AM)
Low52 °F (Jul 26, 6:20 AM)31% (Jul 17, 4:20 PM)29.47 "Hg (Jul 25, 12:20 PM)
Average65 °F74%29.85 "Hg
* Reported Jul 15 1:20 PM — Jul 30 1:20 PM, Lübbecke, Weather by CustomWeather, © 2015

Note: Actual official high and low records may vary slightly from our data, if they occured in-between our weather recording intervals... More about our weather records

Advertising

Lübbecke weather history for previous 24 hours

 ConditionsComfort  
Time TempWeatherWind HumidityBarometerVisibility
1:20 PM
Thu, Jul 30
63 °FBroken clouds.15 mph59%29.92 "HgN/A
12:20 PM63 °FScattered clouds.16 mph59%29.89 "HgN/A
11:20 AM61 °FBroken clouds.20 mph63%29.89 "HgN/A
10:20 AM59 °FBroken clouds.17 mph72%29.89 "HgN/A
9:20 AM57 °FPartly sunny.15 mph77%29.86 "HgN/A
8:20 AM55 °FScattered clouds.15 mph82%29.86 "HgN/A
7:20 AM54 °FBroken clouds.16 mph88%29.86 "HgN/A
6:20 AM54 °FPassing clouds.14 mph82%29.83 "HgN/A
5:20 AM54 °FPartly cloudy.14 mph82%29.83 "HgN/A
4:20 AM54 °FPassing clouds.13 mph82%29.83 "HgN/A
3:20 AM54 °FPassing clouds.13 mph82%29.83 "HgN/A
2:20 AM55 °FPassing clouds.15 mph77%29.80 "HgN/A
1:20 AM55 °FPassing clouds.15 mph77%29.80 "HgN/A
12:20 AM57 °FPassing clouds.14 mph72%29.80 "HgN/A
11:20 PM
Wed, Jul 29
57 °FPassing clouds.18 mph72%29.77 "HgN/A
10:20 PM57 °FPartly cloudy.17 mph72%29.77 "HgN/A
9:20 PM57 °FPartly sunny.17 mph72%29.74 "HgN/A
8:20 PM57 °FBroken clouds.15 mph77%29.74 "HgN/A
7:20 PM57 °FScattered showers. Scattered clouds.13 mph82%29.74 "HgN/A
6:20 PM57 °FSprinkles. Partly sunny.13 mph82%29.74 "HgN/A
5:20 PM57 °FScattered clouds.14 mph77%29.71 "HgN/A
4:54 PM61 °FThunderstorms. Scattered clouds.17 mph59%29.71 "HgN/A
4:20 PM63 °FScattered clouds.18 mph59%29.68 "HgN/A
3:20 PM57 °FPartly sunny.15 mph72%29.71 "HgN/A
2:20 PM54 °FSprinkles. Partly sunny.13 mph88%29.71 "HgN/A
2:03 PM54 °FSprinkles. Broken clouds.20 mph88%29.71 "HgN/A
Weather by CustomWeather, © 2015

See weather overviewHow to use our weather pages